OneWeb SL0294

operational
NORAD ID: 49083 Int'l Des: 2021-075 Owner: ONEWEBN Country: UK Constellation: oneweb
LEOCIRCULARPOLARONEWEB_TYPE

关于 OneWeb SL0294

正在加载描述...

实时位置

正在加载3D地球...

即将过境

高度历史

Altitude vs Time

uPlot chart will show altitude changes over time

两行轨道根数

1 49083U 21075J 26033.54317135 .00000409 00000-0 11029-2 0 9990
2 49083 87.8947 17.3831 0001808 96.6359 263.4975 13.12443819216918
Epoch: Feb 2, 2026 • Age: 13 hours

当前状态

高度 1225.3 km
速度 7.25 km/s
星下点 75.31°N, 20.35°E
发射日期 Aug 21, 2021
运行时间 4.4 years
类型 internet

技术详情

分类 Payload
质量 148.00 kg
干质量 140.00 kg
总质量 148.00 kg
长度 1.30 m
直径 1.00 m
跨度 5.00 m
形状 Trapezoid+2 pan
制造商 ONEWUS
平台类型 ARROW
阶段状态 In Orbit
所有者/国家 ONEWEBN/UK

大型星座

Loading constellations...